Location: Erdweis
(48.5167°N, 15.3500°E)
Time: 05:25:12
(UTC+00:00)

SL-14 R/B - Pass Details

Date: 18 September 2020
Orbit: 519 x 554 km, 82.4° (Epoch: 23 October)

Event Time Altitude Azimuth Distance (km) Brightness Sun altitude
Rises 19:11:06 0° 356° (N) 2,672 7.3 -20.9°
Reaches altitude 10° 19:13:20 10° 4° (N) 1,782 6.2 -21.3°
Enters shadow 19:16:02 33° 37° (NE) 903 4.3 -21.7°
